Terminal Aerodrome Forecast
Issued by NWS Dodge City, KS

Home | Current Version | Previous Version | Text Only | Print | Product List | Glossary On
Versions: 1 2 3 4 5 6 7 8 9 10 11 12 13 14 15 16 17 18 19 20 21 22 23 24 25 26 27 28 29 30 31 32 33 34 35 36 37
000
FTUS43 KDDC 231728
TAFDDC
TAF
KDDC 231728Z 2318/2418 17012KT P6SM BKN018
     FM232000 17012KT P6SM SCT018 BKN030
     FM240200 14012G18KT 4SM BR VCTS OVC006CB
     FM240700 16012G20KT 4SM BR OVC002=

USA.gov is the U.S. government's official web portal to all federal, state and local government web resources and services.